Cheyenne, WY

9:01 AM MST on February 24, 2017 (GMT -0700)
Cheyenne

Weather History for KCYS - August, 2013

Change the Weather History Date:

Wednesday, August 21, 2013

  Actual Average Record
Temperature  
Mean Temperature 71 °F 67 °F  
Max Temperature 83 °F 81 °F 95 °F (1960)
Min Temperature 58 °F 54 °F 40 °F (1939)
Degree Days  
Heating Degree Days 0 1  
Month to date heating degree days 8 21  
Since 1 June heating degree days 77 177  
Since 1 July heating degree days 15 43  
Cooling Degree Days 6 3  
Month to date cooling degree days 89 91  
Year to date cooling degree days 372 301  
Since 1 June cooling degree days 366 298  
Growing Degree Days 22 (Base 50)    
Moisture  
Dew Point 49 °F    
Average Humidity 56    
Maximum Humidity 84    
Minimum Humidity 28    
Precipitation  
Precipitation 0.03 in 0.05 in 0.77 in (1984)
Month to date precipitation 0.91 1.45  
Year to date precipitation 8.15 11.95  
Snow  
Snow 0.00 in 0.00 in - ()
Month to date snowfall 0.0 0.0  
Since 1 July snowfall 0.0 0.0  
Snow Depth 0.00 in    
Sea Level Pressure  
Sea Level Pressure 29.99 in    
Wind  
Wind Speed 9 mph (North)    
Max Wind Speed 26 mph    
Max Gust Speed 33 mph    
Visibility 10 miles    
Events Rain , Thunderstorm    
T = Trace of Precipitation, MM = Missing Value Source: NWS Daily Summary

Daily Weather History Graph

Daily Weather History Graph

Search for Another Location

Airport or City:

Trip Planner

Search our weather history database for the weather conditions in past years. The results will help you decide how hot, cold, wet, or windy it might be!

Date:

Astronomy

Aug. 21, 2013 Rise Set
Actual Time 6:15 AM MDT 7:48 PM MDT
Civil Twilight 5:45 AM MDT 8:17 PM MDT
Nautical Twilight 5:10 AM MDT 8:52 PM MDT
Astronomical Twilight 4:33 AM MDT 9:29 PM MDT
Moon 7:57 PM MDT (8/21) 6:59 AM MDT (8/21)
Length of Visible Light 14h 31m
Length of Day
13h 33m
Full, 99% of the Moon is Illuminated
Aug 21
Full
Aug 28
Last Quarter
Sep 5
New
Sep 12
First Quarter
Sep 19
Full

Hourly Weather History & Observations

Time (MDT) Temp. Dew Point Humidity Pressure Visibility Wind Dir Wind Speed Gust Speed Precip Events Conditions
12:53 AM 69.1 °F 39.9 °F 35% 29.86 in 10.0 mi NW 5.8 mph - N/A   Clear
1:53 AM 70.0 °F 41.0 °F 35% 29.86 in 10.0 mi NW 8.1 mph - N/A   Clear
2:53 AM 71.1 °F 42.1 °F 35% 29.86 in 10.0 mi WNW 5.8 mph - N/A   Clear
3:53 AM 72.0 °F 45.0 °F 38% 29.86 in 10.0 mi NW 12.7 mph 24.2 mph N/A   Clear
4:53 AM 69.1 °F 46.0 °F 44% 29.88 in 10.0 mi NW 12.7 mph - N/A   Partly Cloudy
5:53 AM 70.0 °F 45.0 °F 41% 29.88 in 10.0 mi NW 10.4 mph - N/A   Mostly Cloudy
6:53 AM 70.0 °F 46.0 °F 42% 29.91 in 10.0 mi WNW 11.5 mph - N/A   Overcast
7:53 AM 72.0 °F 45.0 °F 38% 29.92 in 10.0 mi NW 10.4 mph - N/A   Mostly Cloudy
8:53 AM 73.0 °F 46.9 °F 39% 29.94 in 10.0 mi NNW 6.9 mph - N/A   Overcast
9:53 AM 77.0 °F 46.9 °F 34% 29.92 in 10.0 mi NNW 8.1 mph - N/A   Scattered Clouds
10:53 AM 77.0 °F 45.0 °F 32% 29.95 in 10.0 mi NNW 6.9 mph - N/A   Overcast
11:53 AM 78.1 °F 46.0 °F 32% 29.94 in 10.0 mi NNE 8.1 mph - N/A   Overcast
12:53 PM 78.1 °F 46.0 °F 32% 29.95 in 10.0 mi ENE 9.2 mph - N/A Thunderstorm Scattered Clouds
1:51 PM 66.2 °F 51.8 °F 60% 30.25 in 10.0 mi NNE 10.4 mph - 0.03 in Rain Light Rain
1:53 PM 66.9 °F 52.0 °F 59% 30.00 in 10.0 mi NE 12.7 mph - 0.03 in Rain Light Rain
2:53 PM 73.0 °F 52.0 °F 48% 29.97 in 10.0 mi North 12.7 mph 18.4 mph 0.00 in   Partly Cloudy
3:53 PM 79.0 °F 48.0 °F 34% 29.92 in 10.0 mi East 6.9 mph - N/A   Clear
4:53 PM 82.0 °F 46.0 °F 28% 29.91 in 10.0 mi Variable 3.5 mph - N/A   Partly Cloudy
5:53 PM 79.0 °F 46.0 °F 31% 29.91 in 10.0 mi NE 5.8 mph - N/A   Partly Cloudy
6:53 PM 70.0 °F 52.0 °F 53% 29.95 in 10.0 mi NE 17.3 mph 26.5 mph N/A   Mostly Cloudy
7:53 PM 66.9 °F 51.1 °F 57% 29.98 in 10.0 mi NE 10.4 mph - N/A   Scattered Clouds
8:53 PM 66.0 °F 51.1 °F 59% 30.00 in 10.0 mi Calm Calm - N/A   Mostly Cloudy
9:26 PM 66.2 °F 51.8 °F 60% 30.26 in 10.0 mi ENE 5.8 mph - N/A Thunderstorm Mostly Cloudy
9:41 PM 64.4 °F 51.8 °F 64% 30.25 in 10.0 mi East 4.6 mph - N/A   Partly Cloudy
9:53 PM 64.0 °F 52.0 °F 65% 29.99 in 10.0 mi Calm Calm - N/A   Clear
10:28 PM 64.4 °F 53.6 °F 68% 30.30 in 10.0 mi NW 12.7 mph 21.9 mph N/A Thunderstorm Mostly Cloudy
10:43 PM 64.4 °F 53.6 °F 68% 30.30 in 10.0 mi NNW 10.4 mph - 0.00 in Rain Light Rain
10:53 PM 64.0 °F 54.0 °F 70% 30.03 in 10.0 mi North 17.3 mph 24.2 mph 0.00 in   Overcast
11:12 PM 62.6 °F 55.4 °F 77% 30.26 in 10.0 mi NE 11.5 mph 23.0 mph 0.00 in Rain Light Rain
11:53 PM 61.0 °F 55.0 °F 81% 30.01 in 10.0 mi NNW 10.4 mph - 0.00 in   Partly Cloudy